Main page
METAR-TAF:

METAR-TAF

Airports :

Tadoule Lake Airport

Tadoule Lake, Manitoba, Canada

latitude: 58-42-22N, longitude: 98-30-44W, elevation: 281 m

Current weather observation

The report was made 40 minutes ago, at 02:00 UTC
Wind 12 kt from the Northwest with gusts up to 21 kt
Temperature -27°C
Humidity 69%
Pressure 1014 hPa
Visibility: 14.5 km
Clear sky

METAR: CYBQ 110200Z AUTO 31012G21KT 9SM CLR M27/M31 A2994 RMK SLP184

Time: 20:40 (02:40 UTC)


TAF: missing

Weather observations and forecasts of more than 4000 airports (METAR and TAF reports).

The available stations are represented by yellow and red dots on the map.

Hover mouse over dot to see the name of the station.

Then click to see weather observations and forecasts.

To change the map : click on the green buttons with a black cross to zoom in, on the green button with a dash to zoom out, or on the green arrows for adjacent maps.


METAR-TAF: